• In India
  • List of Countries
  • For 7 days
  • Water Temperature
  • Satellite Maps
  • Weather Map
  • Weather Widgets
  • user-avatar
    Login

    Hourly Weather Bialka Tatrzanska

    Today, 11 December, Monday

    Time Temperature Precipitation Wind Pressure Humidity
    00:00 -11°C° 0.1 mm 6 mps 621 mmHg 82%
    01:00 -7°C° 0 mm 1 mps 621 mmHg 87%
    02:00 -8°C° 0.1 mm 2 mps 621 mmHg 87%
    03:00 -8°C° 0.1 mm 3 mps 621 mmHg 87%
    04:00 -9°C° 0.1 mm 4 mps 622 mmHg 87%
    05:00 -8°C° 0.1 mm 4 mps 622 mmHg 87%
    06:00 -8°C° 0.1 mm 4 mps 622 mmHg 87%
    07:00 -7°C° 0 mm 3 mps 622 mmHg 87%
    08:00 -7°C° 0.1 mm 4 mps 622 mmHg 87%
    09:00 -7°C° 0.1 mm 4 mps 622 mmHg 88%
    10:00 -5°C° 0.1 mm 4 mps 623 mmHg 88%
    11:00 -5°C° 0.1 mm 5 mps 623 mmHg 88%
    12:00 -5°C° 0.1 mm 5 mps 623 mmHg 88%
    13:00 -4°C° 0 mm 4 mps 623 mmHg 85%
    14:00 -4°C° 0 mm 4 mps 623 mmHg 86%
    15:00 -5°C° 0 mm 5 mps 623 mmHg 86%
    16:00 -4°C° 0 mm 5 mps 623 mmHg 86%
    17:00 -4°C° 0 mm 5 mps 623 mmHg 87%
    18:00 -4°C° 0 mm 6 mps 623 mmHg 87%
    19:00 -4°C° 0 mm 6 mps 623 mmHg 88%
    20:00 -3°C° 0 mm 6 mps 623 mmHg 88%
    21:00 -3°C° 0 mm 6 mps 623 mmHg 88%
    22:00 -3°C° 0 mm 6 mps 623 mmHg 88%
    23:00 -3°C° 0 mm 6 mps 623 mmHg 88%

    Tomorrow, 12 December, Tuesday

    Time Temperature Precipitation Wind Pressure Humidity
    00:00 -2°C° 0 mm 7 mps 623 mmHg 87%
    01:00 -2°C° 0 mm 7 mps 623 mmHg 86%
    02:00 -2°C° 0 mm 7 mps 623 mmHg 86%
    03:00 -2°C° 0 mm 7 mps 624 mmHg 86%
    04:00 -2°C° 0 mm 7 mps 624 mmHg 86%
    05:00 -2°C° 0 mm 6 mps 624 mmHg 86%
    06:00 -2°C° 0 mm 6 mps 625 mmHg 86%
    07:00 -2°C° 0 mm 6 mps 625 mmHg 87%
    08:00 -1°C° 0.1 mm 5 mps 626 mmHg 88%
    09:00 -1°C° 0.1 mm 5 mps 626 mmHg 89%
    10:00 -1°C° 0.1 mm 5 mps 627 mmHg 89%
    11:00 -1°C° 0.1 mm 4 mps 628 mmHg 89%
    12:00 -1°C° 0.1 mm 4 mps 628 mmHg 89%
    13:00 0°C° 0.1 mm 3 mps 629 mmHg 89%
    14:00 -1°C° 0 mm 3 mps 629 mmHg 91%
    15:00 -2°C° 0 mm 2 mps 629 mmHg 92%
    16:00 -3°C° 0 mm 2 mps 630 mmHg 94%
    17:00 -3°C° 0.1 mm 2 mps 630 mmHg 94%
    18:00 -4°C° 0.1 mm 2 mps 630 mmHg 94%
    19:00 -2°C° 0.1 mm 1 mps 631 mmHg 94%
    20:00 -4°C° 0.3 mm 2 mps 631 mmHg 92%
    21:00 -5°C° 0.3 mm 2 mps 632 mmHg 90%
    22:00 -5°C° 0.3 mm 2 mps 632 mmHg 88%
    23:00 -5°C° 0.3 mm 2 mps 632 mmHg 87%

    Day after tomorrow, 13 December, Wednesday

    Time Temperature Precipitation Wind Pressure Humidity
    00:00 -6°C° 0.3 mm 2 mps 632 mmHg 86%
    01:00 -6°C° 0.3 mm 2 mps 633 mmHg 86%
    02:00 -6°C° 0.2 mm 2 mps 633 mmHg 86%
    03:00 -7°C° 0.2 mm 2 mps 633 mmHg 85%
    04:00 -6°C° 0.2 mm 1 mps 633 mmHg 85%
    05:00 -6°C° 0 mm 1 mps 633 mmHg 85%
    06:00 -6°C° 0 mm 1 mps 633 mmHg 85%
    07:00 -7°C° 0 mm 1 mps 633 mmHg 85%
    08:00 -6°C° 0 mm 1 mps 634 mmHg 83%
    09:00 -6°C° 0 mm 1 mps 634 mmHg 81%
    10:00 -4°C° 0 mm 1 mps 634 mmHg 79%
    11:00 -4°C° 0 mm 1 mps 634 mmHg 76%
    12:00 -3°C° 0 mm 1 mps 634 mmHg 74%
    13:00 -3°C° 0 mm 1 mps 634 mmHg 71%
    14:00 -4°C° 0 mm 1 mps 633 mmHg 77%
    15:00 -6°C° 0 mm 1 mps 632 mmHg 82%
    16:00 -8°C° 0 mm 1 mps 632 mmHg 87%
    17:00 -8°C° 0 mm 1 mps 631 mmHg 88%
    18:00 -8°C° 0 mm 1 mps 631 mmHg 89%
    19:00 -9°C° 0 mm 1 mps 631 mmHg 90%
    20:00 -10°C° 0 mm 2 mps 630 mmHg 88%
    21:00 -10°C° 0 mm 2 mps 630 mmHg 85%
    22:00 -10°C° 0 mm 2 mps 629 mmHg 83%
    23:00 -10°C° 0 mm 2 mps 629 mmHg 81%

    14 December, Thursday

    Time Temperature Precipitation Wind Pressure Humidity
    00:00 -12°C° 0 mm 3 mps 628 mmHg 79%
    01:00 -12°C° 0 mm 3 mps 628 mmHg 77%
    02:00 -10°C° 0 mm 3 mps 627 mmHg 77%
    03:00 -10°C° 0 mm 3 mps 627 mmHg 76%
    04:00 -10°C° 0 mm 3 mps 627 mmHg 76%
    05:00 -10°C° 0 mm 4 mps 627 mmHg 78%
    06:00 -10°C° 0 mm 4 mps 626 mmHg 80%
    07:00 -9°C° 0 mm 4 mps 626 mmHg 83%
    08:00 -9°C° 0 mm 4 mps 627 mmHg 82%
    09:00 -8°C° 0 mm 4 mps 627 mmHg 81%
    10:00 -8°C° 0 mm 4 mps 627 mmHg 80%
    11:00 -7°C° 0 mm 4 mps 627 mmHg 81%
    12:00 -6°C° 0 mm 3 mps 627 mmHg 81%
    13:00 -5°C° 0 mm 3 mps 627 mmHg 82%
    14:00 -6°C° 0 mm 3 mps 627 mmHg 84%
    15:00 -6°C° 0 mm 3 mps 627 mmHg 87%
    16:00 -7°C° 0 mm 3 mps 626 mmHg 89%
    17:00 -6°C° 0.1 mm 2 mps 626 mmHg 89%
    18:00 -6°C° 0.1 mm 2 mps 626 mmHg 89%
    19:00 -6°C° 0.1 mm 2 mps 626 mmHg 89%
    20:00 -6°C° 0 mm 2 mps 626 mmHg 88%
    21:00 -6°C° 0 mm 2 mps 625 mmHg 88%
    22:00 -6°C° 0 mm 2 mps 625 mmHg 87%
    23:00 -6°C° 0 mm 2 mps 624 mmHg 87%

    15 December, Friday

    Time Temperature Precipitation Wind Pressure Humidity
    00:00 -6°C° 0 mm 2 mps 624 mmHg 86%
    01:00 -7°C° 0 mm 3 mps 623 mmHg 86%
    02:00 -7°C° 0 mm 3 mps 622 mmHg 86%
    03:00 -8°C° 0 mm 3 mps 622 mmHg 87%
    04:00 -8°C° 0 mm 3 mps 621 mmHg 88%
    05:00 -7°C° 0.1 mm 3 mps 621 mmHg 87%
    06:00 -7°C° 0.1 mm 3 mps 622 mmHg 87%
    07:00 -7°C° 0.1 mm 4 mps 622 mmHg 86%
    08:00 -7°C° 0 mm 4 mps 622 mmHg 84%
    09:00 -7°C° 0 mm 4 mps 623 mmHg 81%
    10:00 -7°C° 0 mm 4 mps 623 mmHg 78%
    11:00 -6°C° 0 mm 3 mps 624 mmHg 76%
    12:00 -6°C° 0 mm 3 mps 624 mmHg 73%
    13:00 -5°C° 0 mm 2 mps 624 mmHg 70%
    14:00 -5°C° 0 mm 2 mps 624 mmHg 74%
    15:00 -4°C° 0 mm 1 mps 624 mmHg 78%
    16:00 -6°C° 0 mm 1 mps 623 mmHg 82%
    17:00 -6°C° 0 mm 1 mps 623 mmHg 82%
    18:00 -6°C° 0 mm 1 mps 623 mmHg 82%
    19:00 -6°C° 0 mm 0 mps 623 mmHg 82%
    20:00 -6°C° 0.1 mm 0 mps 623 mmHg 82%
    21:00 -6°C° 0.1 mm 0 mps 622 mmHg 82%
    22:00 -6°C° 0.1 mm 0 mps 622 mmHg 82%
    23:00 -6°C° 0.3 mm 1 mps 622 mmHg 84%

    16 December, Saturday

    Time Temperature Precipitation Wind Pressure Humidity
    00:00 -7°C° 0.3 mm 1 mps 622 mmHg 86%
    01:00 -7°C° 0.3 mm 1 mps 622 mmHg 88%
    02:00 -7°C° 0.6 mm 1 mps 622 mmHg 89%
    03:00 -8°C° 0.6 mm 2 mps 621 mmHg 90%
    04:00 -8°C° 0.6 mm 2 mps 621 mmHg 91%
    05:00 -7°C° 0.2 mm 1 mps 622 mmHg 91%
    06:00 -7°C° 0.2 mm 1 mps 622 mmHg 92%
    07:00 -7°C° 0.2 mm 1 mps 622 mmHg 92%
    08:00 -7°C° 0.1 mm 1 mps 623 mmHg 90%
    09:00 -6°C° 0.1 mm 1 mps 623 mmHg 88%
    10:00 -6°C° 0.1 mm 1 mps 624 mmHg 87%
    11:00 -6°C° 0.1 mm 1 mps 624 mmHg 85%
    12:00 -4°C° 0.1 mm 1 mps 624 mmHg 84%
    13:00 -4°C° 0.1 mm 1 mps 625 mmHg 83%
    14:00 -6°C° 0 mm 1 mps 625 mmHg 86%
    15:00 -6°C° 0 mm 1 mps 625 mmHg 88%
    16:00 -7°C° 0 mm 1 mps 625 mmHg 91%
    17:00 -7°C° 0 mm 1 mps 625 mmHg 91%
    18:00 -8°C° 0 mm 1 mps 625 mmHg 92%
    19:00 -8°C° 0 mm 1 mps 625 mmHg 92%
    20:00 -8°C° 0 mm 1 mps 626 mmHg 92%
    21:00 -8°C° 0 mm 1 mps 626 mmHg 92%
    22:00 -9°C° 0 mm 1 mps 626 mmHg 92%
    23:00 -9°C° 0 mm 1 mps 626 mmHg 91%
    Show more